Location: Unspecified
(0.0000°N, 0.0000°E)
Time: 09:05:49
(UTC+00:00)

Explorer 11/Cluster Stage 4 - Pass Details

Date: 20 July 2020
Orbit: 467 x 1259 km, 28.8° (Epoch: 03 August)

Event Time Altitude Azimuth Distance (km) Brightness Sun altitude
Rises 04:18:22 0° 248° (WSW) 2,907 - -25.2°
Reaches altitude 10° 04:20:57 10° 254° (WSW) 1,885 - -24.6°
Maximum altitude 04:25:04 47° 328° (NNW) 686 - -23.6°
Exits shadow 04:25:35 44° 354° (N) 712 6.4 -23.5°
Drops below altitude 10° 04:28:38 10° 43° (NE) 1,642 9.1 -22.8°
Sets 04:30:46 0° 50° (NE) 2,487 10.4 -22.3°
